Weather History for Greenville, MS

Change the Weather History Date:

Wednesday, March 6, 2013

  Actual Average Record
Temperature  
Mean Temperature 41 °F 52 °F  
Max Temperature 50 °F 62 °F 83 °F (1955)
Min Temperature 32 °F 42 °F 23 °F (1960)
Degree Days  
Heating Degree Days 24 13  
Month to date heating degree days 139 83  
Since 1 July heating degree days 2142 2392  
Cooling Degree Days 0 0  
Month to date cooling degree days 0 0  
Year to date cooling degree days 10 5  
Moisture  
Dew Point 27 °F    
Average Humidity 59    
Maximum Humidity 76    
Minimum Humidity 42    
Precipitation  
Precipitation 0.00 in 0.15 in 1.72 in (1961)
Month to date precipitation 0.05 0.79  
Year to date precipitation 12.51 10.78  
Sea Level Pressure  
Sea Level Pressure 30.34 in    
Wind  
Wind Speed 9 mph (North)    
Max Wind Speed 20 mph    
Max Gust Speed 23 mph    
Visibility 10 miles    
Events      
T = Trace of Precipitation, MM = Missing Value Source: NWS Daily Summary

Daily Weather History Graph

Daily Weather History Graph

Search for Another Location

Airport:

Trip Planner

Search our weather history database for the weather conditions in past years. The results will help you decide how hot, cold, wet, or windy it might be!

Date:

Astronomy

Mar. 06, 2013 Rise Set
Actual Time 6:25 AM CST 6:04 PM CST
Civil Twilight 6:00 AM CST 6:29 PM CST
Nautical Twilight 5:32 AM CST 6:58 PM CST
Astronomical Twilight 5:03 AM CST 7:27 PM CST
Moon 2:22 AM CST (3/6) 12:58 PM CST (3/6)
Length of Visible Light 12h 29m
Length of Day
11h 39m
Waning Crescent, 29% of the Moon is Illuminated
Mar 6
Waning Crescent
Mar 11
New
Mar 19
First Quarter
Mar 27
Full
Apr 2
Last Quarter

Hourly Weather History & Observations

Time (CST) Temp. Windchill Dew Point Humidity Pressure Visibility Wind Dir Wind Speed Gust Speed Precip Events Conditions
12:53 AM 41.0 °F 34.7 °F 25.0 °F 53% 30.27 in 10.0 mi NW 10.4 mph - N/A   Clear
1:53 AM 37.0 °F 31.6 °F 26.1 °F 65% 30.27 in 10.0 mi NW 6.9 mph - N/A   Clear
2:53 AM 36.0 °F 32.1 °F 27.0 °F 70% 30.27 in 10.0 mi West 4.6 mph - N/A   Clear
3:53 AM 34.0 °F 28.8 °F 27.0 °F 75% 30.29 in 10.0 mi West 5.8 mph - N/A   Clear
4:53 AM 35.1 °F 28.6 °F 27.0 °F 72% 30.32 in 10.0 mi NW 8.1 mph - N/A   Clear
5:53 AM 35.6 °F 27.1 °F 26.6 °F 70% 30.32 in 10.0 mi NNW 12.7 mph - N/A   Clear
6:53 AM 35.1 °F 26.4 °F 26.1 °F 70% 30.36 in 10.0 mi NNW 12.7 mph - N/A   Clear
7:53 AM 37.9 °F 28.5 °F 25.0 °F 60% 30.39 in 10.0 mi NNW 17.3 mph 23.0 mph N/A   Clear
8:53 AM 39.9 °F 31.4 °F 25.0 °F 55% 30.40 in 10.0 mi North 16.1 mph - N/A   Clear
9:53 AM 42.1 °F 34.5 °F 25.0 °F 51% 30.41 in 10.0 mi North 15.0 mph - N/A   Clear
10:53 AM 44.1 °F 38.1 °F 26.1 °F 49% 30.41 in 10.0 mi NNE 11.5 mph - N/A   Clear
11:53 AM 45.0 °F 41.2 °F 27.0 °F 49% 30.40 in 10.0 mi North 6.9 mph 19.6 mph N/A   Clear
12:53 PM 46.9 °F - 27.0 °F 46% 30.38 in 10.0 mi North 12.7 mph 16.1 mph N/A   Clear
1:53 PM 48.0 °F - 27.0 °F 44% 30.36 in 10.0 mi Variable 4.6 mph - N/A   Clear
2:53 PM 48.9 °F - 27.0 °F 43% 30.34 in 10.0 mi North 10.4 mph 18.4 mph N/A   Clear
3:53 PM 48.9 °F - 28.0 °F 44% 30.33 in 10.0 mi North 8.1 mph - N/A   Clear
4:53 PM 48.9 °F - 28.0 °F 44% 30.33 in 10.0 mi North 6.9 mph - N/A   Clear
5:53 PM 44.1 °F 40.1 °F 28.9 °F 55% 30.33 in 10.0 mi NNE 6.9 mph - N/A   Clear
6:53 PM 42.1 °F 39.2 °F 28.9 °F 60% 30.35 in 10.0 mi NNE 4.6 mph - N/A   Clear
7:53 PM 39.9 °F 37.8 °F 30.0 °F 68% 30.35 in 10.0 mi NNE 3.5 mph - N/A   Clear
8:53 PM 37.0 °F 32.4 °F 28.9 °F 73% 30.35 in 10.0 mi NNE 5.8 mph - N/A   Clear
9:53 PM 37.0 °F 32.4 °F 30.0 °F 76% 30.35 in 10.0 mi NE 5.8 mph - N/A   Clear
10:53 PM 37.9 °F 33.5 °F 30.9 °F 76% 30.34 in 10.0 mi NE 5.8 mph - N/A   Clear
11:53 PM 39.0 °F 33.4 °F 30.9 °F 73% 30.32 in 10.0 mi East 8.1 mph - N/A   Clear